Simultaneous Nadir Overpasses (SNOs) Predictions

Prediction of SNOs between METOP-A and TERRA Satellite Orbit:

Table of predicted SNOs for the next 14.0 days since TLE Epoch: 3/9/2017
Index Date (METOP-A) Time (METOP-A) Lat,Lon (METOP-A) SZA (METOP-A ) Date (TERRA) Time (TERRA) Lat,Lon (TERRA) SZA (TERRA ) Distance(km) Time Diff (sec)
1 03/10/2017 13:03:48 81.33, 31.91 87.76 03/10/2017 13:03:55 81.33, 31.97 87.77 1.32 7
2 03/10/2017 13:54:28 -81.33,-160.49 92.23 03/10/2017 13:53:22 -81.33,-160.43 92.25 0.92 66
3 03/13/2017 07:47:45 -81.21, -74.97 94.01 03/13/2017 07:48:59 -81.01, -74.46 94.08 23.79 74
4 03/13/2017 08:38:10 81.33, 98.48 86.69 03/13/2017 08:38:11 81.33, 98.39 86.69 1.45 1
5 03/13/2017 09:28:50 -81.33, -93.87 93.29 03/13/2017 09:27:38 -81.33, -93.99 93.33 2.00 72
6 03/1
